Flag for Colombia Weather past 2 weeks in Barranquilla, Colombia

Now
86 °F

Sunny.


Feels Like: 97 °F
Forecast: N/A
Wind: 12 mph from Northeast

Location: Barranquilla / Ernestocortissoz

Current Time: Feb 27, 2015 at 4:30:11 PM

Latest Report: Feb 27, 2015 at 4:00 PM


Visibility: 10 mi

Pressure: 29.76 "Hg

Humidity: 75%

Dew point: 77 °F

Location of BarranquillaLocation

Historic Weather in Barranquilla — Graph

°F

Barranquilla temperature yesterday

Maximum temperature yesterday: 93 °F (at 1:00 PM)
Minimum temperature yesterday: 73 °F (at 5:00 AM)
Average temperature yesterday: 82 °F

Past Weeks' High & Low Weather Summary

 TemperatureHumidityPressure
High93 °F (Feb 26, 1:00 PM)100% (Feb 18, 8:00 AM)29.94 "Hg (Feb 18, 8:00 AM)
Low73 °F (Feb 25, 6:00 AM)55% (Feb 25, 11:00 AM)29.73 "Hg (Feb 16, 6:00 PM)
Average82 °F79%29.83 "Hg
* Reported Feb 12 8:00 PM — Feb 27 3:00 PM, Barranquilla, Weather by CustomWeather, © 2015

Note: Actual official high and low records may vary slightly from our data, if they occured in-between our weather recording intervals... More about our weather records

Advertising

Barranquilla weather history for previous 24 hours

 ConditionsComfort  
Time TempWeatherWind HumidityBarometerVisibility
3:00 PM
Fri, Feb 27
88 °FSunny.16 mph66%29.77 "Hg10 mi
1:00 PM88 °FSunny.14 mph66%29.83 "Hg10 mi
12:00 PM88 °FSunny.10 mph66%29.85 "Hg10 mi
11:00 AM88 °FSunny.9 mph66%29.87 "Hg10 mi
10:00 AM86 °FSunny.7 mph70%29.89 "Hg10 mi
9:00 AM82 °FScattered clouds.8 mph84%29.89 "HgN/A
8:00 AM79 °FFog.3 mph100%29.88 "Hg5 mi
7:00 AM75 °FFog.No wind100%29.85 "Hg2 mi
6:00 AM77 °FPassing clouds.No wind94%29.82 "HgN/A
5:00 AM75 °FPassing clouds.5 mph100%29.80 "HgN/A
4:00 AM77 °FClear.6 mph94%29.78 "Hg10 mi
3:00 AM77 °FClear.6 mph94%29.77 "Hg10 mi
2:00 AM79 °FClear.5 mph89%29.79 "Hg10 mi
1:00 AM79 °FClear.7 mph89%29.80 "Hg10 mi
12:00 AM79 °FClear.6 mph89%29.81 "Hg10 mi
11:00 PM
Thu, Feb 26
79 °FClear.5 mph89%29.82 "Hg10 mi
10:00 PM79 °FClear.5 mph89%29.82 "Hg10 mi
9:00 PM79 °FClear.6 mph89%29.81 "Hg10 mi
8:00 PM81 °FClear.8 mph84%29.80 "Hg10 mi
7:00 PM81 °FClear.9 mph84%29.78 "Hg10 mi
6:00 PM82 °FSunny.16 mph79%29.77 "Hg10 mi
5:00 PM86 °FSunny.12 mph70%29.75 "Hg10 mi
4:00 PM88 °FSunny.15 mph66%29.75 "Hg10 mi
Weather by CustomWeather, © 2015

See weather overviewHow to use our weather pages